Wetbulb
58.84 58.87 58.69 58.53 58.37 58.79 59.08 59.34 60.30 60.52 60.79 60.88 61.10 61.44 61.68 61.87 61.48 60.09 55.94 64.12 65.11 73.62 74.49 71.48 70.89 72.96 71.83 68.74 69.46 67.70 58.12 55.93 57.60 58.16 57.90 62.64 61.05 64.19 65.38 63.26 64.72 65.30 64.67 66.32 69.47
58.07 58.59 58.45 58.49 58.14 58.35 58.46 58.84 59.88 60.18 60.49 60.56 60.68 61.39 61.70 61.78 59.26 56.08 65.46 72.72 72.82 75.51 73.09 71.09 70.17 71.56 67.96 66.97 65.19 62.34 57.79 59.56 63.72 63.49 60.84 62.15 62.16 62.04 62.07 61.98 61.58 63.73 66.98 68.44 69.01
57.57 58.14 58.31 58.44 57.94 57.86 58.31 58.49 59.51 60.02 60.18 60.19 60.57 61.38 61.57 61.41 56.65 60.09 72.99 74.22 75.09 74.33 73.11 72.76 71.11 69.90 66.48 66.01 65.29 63.51 58.71 63.49 64.77 65.77 66.15 62.34 60.94 63.05 60.77 58.98 61.25 61.84 65.23 67.34 68.26
57.18 57.52 57.87 57.79 57.78 57.70 58.15 58.37 59.08 59.61 59.74 60.15 60.51 61.34 61.62 58.83 55.11 65.96 75.07 75.01 75.55 72.90 72.72 70.38 67.98 65.18 63.45 61.90 65.83 61.50 64.52 65.16 66.61 66.81 65.24 63.16 63.26 61.77 62.01 61.74 64.59 65.54 67.13 67.61 67.64
56.97 57.07 57.36 57.69 57.34 57.44 57.78 58.42 59.08 59.34 59.57 60.11 60.69 61.49 57.36 53.16 57.19 72.64 76.31 75.87 71.93 73.11 70.72 68.38 65.76 65.18 62.76 64.01 65.02 62.23 64.52 65.89 66.64 66.50 65.24 65.69 64.07 62.86 62.62 64.00 65.63 66.86 67.66 67.16 67.46
56.63 56.77 57.03 57.23 56.98 57.18 57.58 58.44 58.59 58.88 59.20 60.01 60.87 61.41 56.31 54.57 66.25 72.10 70.33 70.58 72.30 71.61 70.96 69.25 68.60 66.86 64.86 63.69 63.83 63.12 64.10 63.64 65.38 66.14 65.93 64.12 64.14 65.08 63.26 64.34 64.49 65.89 66.27 67.00 67.50
56.27 56.53 56.64 56.53 56.70 56.75 57.53 58.09 58.16 58.57 59.20 60.01 61.04 61.16 54.78 56.59 68.45 69.36 69.47 69.67 72.82 72.66 70.68 69.25 70.25 66.55 66.73 64.83 67.31 65.22 59.63 62.60 63.53 65.33 64.13 64.80 61.25 60.78 63.28 63.56 62.89 63.02 64.28 66.66 67.37
56.08 56.22 56.33 56.26 56.08 56.49 57.46 57.58 57.86 58.72 59.66 60.72 62.20 58.40 52.54 61.95 67.03 68.21 65.83 66.66 71.41 72.83 72.09 71.71 70.71 68.52 67.67 67.13 63.89 60.04 58.24 54.67 61.30 64.23 64.18 63.47 56.39 61.76 63.23 61.95 60.83 62.23 63.56 64.31 65.08
55.85 55.86 55.91 55.86 55.79 56.66 57.04 56.93 58.01 58.98 60.16 61.65 55.91 52.72 55.65 65.51 64.54 66.10 65.80 65.35 68.38 71.64 72.95 73.17 70.58 66.36 65.59 58.34 54.98 56.05 51.03 54.23 56.99 62.90 62.26 60.08 55.50 61.46 64.26 61.98 60.59 61.55 62.89 64.17 64.62
55.65 55.53 55.58 55.49 55.54 56.63 56.25 56.49 58.45 58.10 57.68 60.75 59.90 52.62 57.54 59.72 63.53 65.61 67.47 69.08 68.57 70.77 68.57 67.39 63.07 59.06 58.24 55.32 48.67 51.23 52.27 54.07 53.67 58.77 60.21 58.69 57.92 61.19 62.65 62.77 60.67 61.08 61.83 63.33 64.20
55.49 55.36 55.35 55.28 55.69 56.13 52.27 49.03 47.55 49.77 50.73 54.58 54.79 56.54 59.83 62.05 66.30 64.94 65.72 66.31 69.20 66.26 59.93 62.66 56.61 54.28 56.16 58.33 59.69 57.41 55.34 54.54 57.10 60.77 58.56 57.52 57.98 59.44 61.58 61.80 61.74 62.34 61.96 61.94 62.84
55.48 55.09 55.31 54.74 55.56 55.44 49.91 46.40 49.47 50.19 47.17 52.98 54.72 57.34 59.67 61.04 58.93 63.90 66.63 62.17 63.15 58.79 60.70 56.64 54.19 59.27 60.10 60.28 58.77 56.83 54.08 53.41 57.33 60.56 57.93 56.71 56.81 59.17 60.07 60.82 62.15 62.32 61.87 62.57 63.73
55.16 54.81 54.68 54.35 55.10 50.11 46.57 47.98 51.00 50.33 46.49 53.10 53.51 54.41 56.89 59.92 58.51 59.50 64.98 63.71 61.65 59.56 58.72 54.39 56.46 62.25 61.46 59.30 57.59 54.96 54.55 54.33 54.58 59.01 59.24 57.12 53.00 54.72 60.65 62.53 62.49 62.46 62.79 62.49 62.57
54.79 54.46 54.11 53.96 49.34 48.33 48.60 48.80 52.15 49.55 46.52 51.36 53.78 58.49 59.63 59.80 58.15 62.90 66.42 65.28 63.87 59.68 58.77 55.80 60.69 60.53 59.96 58.67 58.35 49.71 58.67 58.13 56.45 54.25 48.91 55.42 45.98 51.08 54.22 57.32 61.13 62.73 63.00 62.72 62.90
53.97 53.99 53.59 54.57 46.00 50.66 49.21 52.24 48.05 52.73 41.23 54.19 55.17 60.69 58.91 58.57 60.16 62.72 67.99 65.36 60.54 60.50 58.91 55.38 58.87 58.08 56.48 56.92 60.19 56.24 55.70 57.07 56.98 51.16 48.33 50.96 48.46 50.61 54.19 54.48 57.27 59.95 62.44 63.55 63.99
53.51 53.32 53.67 52.19 48.15 50.67 52.54 50.83 51.69 47.12 43.40 52.63 56.61 55.51 56.05 58.48 59.82 63.47 63.84 65.40 62.94 58.79 58.31 58.19 61.45 59.01 58.48 60.03 60.82 57.84 53.74 50.53 49.29 47.77 43.55 46.23 48.96 47.97 50.72 54.92 56.34 58.74 60.43 62.21 62.68
52.70 52.87 52.51 53.06 47.20 52.91 51.52 51.43 46.74 42.10 52.30 51.20 52.09 53.91 54.76 56.07 57.89 59.42 59.30 57.88 56.09 51.98 49.81 53.39 53.88 57.22 59.52 55.12 54.32 51.41 46.06 40.33 40.24 40.23 42.10 44.01 47.41 49.42 53.21 55.80 58.57 59.26 59.96 61.23 62.69
51.89 52.17 50.68 52.70 50.94 51.88 50.90 49.24 41.18 48.41 48.73 53.29 55.26 54.76 53.57 55.39 56.79 58.50 55.52 54.82 55.25 53.86 49.94 47.74 48.17 54.47 58.62 56.11 53.63 48.61 45.70 41.31 37.28 36.75 39.83 46.24 44.84 50.85 55.15 56.05 58.60 59.82 60.97 61.53 62.42
51.33 47.68 47.25 49.68 52.84 51.73 51.99 45.89 46.13 47.46 51.97 52.69 54.61 52.21 51.73 54.64 56.98 55.45 53.55 54.10 56.81 55.29 52.46 47.77 48.46 56.35 56.65 55.34 54.55 48.27 44.21 46.68 40.12 35.43 37.69 41.50 46.10 52.31 54.61 55.90 56.91 58.32 60.04 59.95 62.21
45.65 45.18 45.74 50.96 54.11 51.31 49.53 44.54 47.28 50.75 52.45 52.13 51.18 53.16 50.84 53.71 53.58 51.67 52.78 56.42 55.98 56.78 54.76 51.88 47.54 49.22 50.85 50.06 49.57 50.25 49.18 44.45 40.04 36.07 35.03 37.58 41.09 45.61 50.98 53.70 55.11 55.43 57.47 59.06 63.14
46.53 44.46 48.97 51.52 51.38 49.82 45.73 45.12 49.03 52.64 53.00 49.26 51.06 52.36 52.37 53.46 52.89 50.48 51.70 56.20 58.39 56.01 54.84 49.44 46.86 45.44 46.49 44.79 43.57 46.92 45.40 40.54 40.11 37.91 35.92 34.23 39.70 47.55 49.29 51.73 54.16 53.71 55.96 59.89 62.55
45.96 45.37 51.24 51.22 48.46 41.99 44.59 46.89 49.81 51.03 52.01 50.92 50.04 54.16 54.45 54.25 51.67 50.59 52.17 54.36 59.34 57.70 54.27 52.05 43.41 40.59 44.17 45.43 46.27 45.24 43.98 41.66 41.06 39.23 35.05 35.75 39.73 48.73 52.12 51.17 51.95 52.76 56.71 60.27 63.17
46.12 48.67 52.63 50.81 45.32 43.95 45.34 48.17 49.80 49.55 48.29 47.67 47.36 55.68 54.45 53.37 49.50 52.09 52.97 55.84 58.99 55.97 52.72 50.33 41.75 39.71 43.36 43.34 44.30 43.82 44.87 40.44 39.87 38.38 37.54 37.15 41.36 49.83 54.26 53.75 52.39 54.74 58.94 61.14 63.49
51.05 47.68 47.78 47.24 44.26 44.30 42.69 44.77 46.30 50.11 48.76 49.94 47.99 49.00 46.73 49.29 49.75 44.85 47.55 51.41 53.21 52.86 59.54 51.54 39.55 43.32 40.99 43.26 42.02 42.86 45.84 46.06 43.06 40.19 39.68 39.87 43.58 47.75 49.31 53.64 54.98 57.87 60.30 61.88 63.35
50.03 50.67 48.88 44.79 45.52 43.70 44.71 45.14 46.26 47.48 48.22 48.43 47.60 47.74 46.30 45.34 48.09 46.68 49.69 50.01 51.35 56.22 48.11 47.60 45.01 40.27 42.65 44.23 44.03 45.07 46.61 47.48 44.73 43.92 42.56 44.75 42.38 47.14 48.92 52.72 55.66 59.60 61.48 61.91 62.21
51.27 52.94 50.93 50.92 52.02 47.30 43.30 43.29 47.42 49.69 46.71 47.94 46.80 50.54 47.53 47.70 49.72 49.73 49.71 50.52 47.34 47.49 48.01 45.83 44.51 42.34 43.54 47.90 45.45 46.53 48.87 48.06 47.10 46.64 44.71 44.15 44.48 49.66 50.44 55.39 58.57 60.59 61.22 61.60 61.87
48.23 49.91 52.53 48.31 49.89 46.49 46.77 48.60 50.66 49.84 51.92 50.94 50.27 50.60 51.11 51.97 52.25 54.23 52.57 51.84 51.82 49.93 48.35 46.63 44.62 42.45 41.20 43.69 44.74 43.09 46.44 47.52 47.47 48.08 47.79 45.51 49.56 52.35 54.54 55.73 57.09 58.33 59.70 60.90 61.28
MSLP
1015.34 1015.14 1015.03 1014.81 1014.46 1014.11 1013.84 1013.62 1013.32 1013.09 1012.80 1012.52 1012.19 1012.07 1011.96 1011.68 1010.80 1010.75 1009.60 1007.54 1007.39 1007.29 1007.60 1008.06 1008.22 1008.41 1008.86 1009.38 1009.78 1010.15 1010.53 1010.57 1009.63 1008.85 1008.02 1007.44 1007.70 1008.37 1008.60 1009.24 1009.62 1010.11 1010.76 1011.22 1012.58
1015.36 1015.17 1014.97 1014.72 1014.45 1014.12 1013.84 1013.58 1013.33 1013.05 1012.75 1012.39 1012.10 1012.10 1012.04 1011.49 1010.81 1009.44 1006.99 1006.70 1007.05 1007.22 1007.47 1007.68 1008.17 1008.56 1009.32 1009.93 1009.98 1010.16 1010.49 1009.92 1009.11 1008.46 1007.72 1007.34 1007.47 1008.00 1008.81 1009.42 1009.91 1010.62 1011.03 1011.59 1012.57
1015.39 1015.21 1014.98 1014.66 1014.40 1014.08 1013.76 1013.56 1013.28 1012.96 1012.67 1012.23 1012.08 1012.05 1011.83 1011.28 1010.48 1007.59 1006.50 1006.71 1006.77 1006.88 1007.10 1007.35 1007.97 1008.62 1009.44 1010.05 1010.17 1009.90 1009.77 1008.66 1008.22 1007.71 1007.08 1007.21 1007.47 1007.90 1008.61 1009.55 1009.58 1010.40 1011.54 1012.09 1012.73
1015.38 1015.20 1014.92 1014.64 1014.34 1013.98 1013.67 1013.43 1013.13 1012.87 1012.57 1012.18 1012.09 1011.93 1011.35 1011.04 1009.47 1006.98 1006.23 1006.31 1006.60 1007.04 1007.31 1007.69 1008.28 1008.96 1009.58 1009.93 1009.93 1009.84 1009.21 1008.83 1007.66 1006.90 1006.87 1006.93 1007.21 1007.89 1008.40 1008.68 1008.73 1010.15 1010.96 1012.01 1012.90
1015.27 1015.11 1014.82 1014.59 1014.26 1013.90 1013.58 1013.26 1012.95 1012.71 1012.45 1012.17 1012.05 1011.72 1011.11 1010.30 1008.19 1006.78 1006.47 1006.57 1006.95 1007.26 1007.65 1007.91 1008.40 1009.16 1009.51 1009.61 1009.69 1009.76 1008.93 1008.07 1007.13 1006.47 1006.59 1006.75 1007.28 1007.47 1008.24 1008.59 1008.86 1010.25 1011.31 1012.09 1012.68
1015.17 1014.95 1014.72 1014.45 1014.17 1013.81 1013.43 1013.06 1012.78 1012.62 1012.34 1012.08 1012.03 1011.80 1010.96 1009.37 1007.04 1006.68 1006.57 1006.85 1007.11 1007.61 1007.90 1008.00 1008.35 1008.80 1009.40 1009.51 1009.46 1009.30 1008.78 1007.88 1007.33 1006.96 1006.85 1007.18 1007.40 1007.75 1008.61 1008.92 1009.55 1010.53 1011.23 1011.79 1012.19
1015.07 1014.85 1014.60 1014.27 1013.98 1013.65 1013.24 1012.89 1012.65 1012.46 1012.19 1012.08 1012.11 1011.58 1010.56 1008.26 1006.99 1006.80 1006.86 1006.99 1007.27 1007.57 1007.88 1008.16 1008.57 1008.71 1009.34 1009.47 1009.28 1008.98 1008.61 1008.00 1007.74 1007.14 1006.91 1007.13 1007.64 1008.34 1008.78 1009.36 1009.86 1010.44 1011.07 1011.57 1011.73
1014.90 1014.70 1014.46 1014.13 1013.82 1013.50 1013.04 1012.68 1012.46 1012.27 1012.06 1011.96 1011.77 1011.46 1009.54 1007.38 1006.95 1007.14 1007.08 1007.22 1007.32 1007.80 1008.03 1008.43 1008.53 1008.93 1009.41 1009.56 1009.50 1009.38 1009.13 1008.82 1008.14 1007.79 1007.65 1007.73 1007.95 1008.58 1008.93 1009.49 1010.06 1010.44 1010.78 1011.07 1011.31
1014.70 1014.55 1014.29 1014.00 1013.75 1013.34 1012.81 1012.40 1012.14 1012.00 1011.92 1011.81 1011.81 1011.09 1008.64 1007.55 1007.37 1006.97 1007.22 1007.22 1007.56 1008.04 1008.24 1008.57 1008.77 1009.25 1009.62 1009.82 1010.00 1009.82 1009.50 1009.16 1008.53 1008.16 1008.21 1008.42 1008.42 1008.70 1008.94 1009.58 1010.15 1010.32 1010.45 1010.46 1010.72
1014.52 1014.39 1014.14 1013.84 1013.60 1013.18 1012.54 1012.03 1011.87 1011.84 1011.82 1011.77 1011.15 1010.56 1008.05 1006.76 1006.50 1006.68 1007.00 1007.46 1007.81 1008.30 1008.74 1008.99 1009.51 1009.76 1010.13 1010.11 1010.15 1009.72 1009.52 1009.25 1008.88 1008.50 1008.60 1008.72 1008.39 1008.83 1009.23 1009.57 1009.90 1010.11 1010.28 1010.26 1010.25
1014.23 1014.13 1013.95 1013.77 1013.55 1013.25 1012.47 1011.88 1012.12 1011.99 1011.38 1009.87 1009.21 1008.39 1007.09 1006.23 1006.07 1006.81 1006.82 1007.56 1007.87 1008.37 1008.98 1009.51 1009.95 1009.77 1009.54 1009.44 1009.39 1009.28 1009.24 1009.16 1008.61 1008.24 1008.66 1008.73 1008.80 1008.79 1009.07 1009.57 1010.04 1010.09 1009.84 1010.22 1009.98
1013.94 1013.80 1013.67 1013.53 1013.36 1013.14 1013.02 1012.01 1010.72 1010.46 1009.74 1008.37 1008.20 1007.71 1006.77 1006.22 1006.52 1006.64 1006.78 1007.89 1008.08 1008.61 1009.14 1009.69 1009.36 1008.22 1008.51 1008.79 1008.84 1008.98 1009.09 1008.90 1008.47 1008.23 1008.59 1008.75 1008.75 1008.62 1008.99 1009.10 1009.30 1009.38 1009.65 1009.95 1009.62
1013.63 1013.48 1013.40 1013.30 1013.04 1013.00 1012.26 1010.84 1009.99 1009.87 1009.62 1007.72 1007.19 1006.75 1005.90 1006.08 1005.91 1006.12 1006.31 1006.98 1007.68 1008.59 1009.07 1009.40 1008.27 1007.62 1007.81 1007.96 1008.28 1008.50 1008.68 1008.59 1008.63 1008.49 1008.68 1009.02 1008.98 1009.00 1008.73 1008.88 1008.78 1008.74 1008.80 1009.04 1008.90
1013.31 1013.24 1013.22 1013.07 1013.40 1012.25 1011.26 1010.03 1009.91 1009.75 1009.52 1007.55 1006.59 1005.16 1005.36 1005.42 1005.42 1005.02 1005.41 1006.26 1007.32 1007.87 1008.81 1008.89 1007.70 1007.36 1007.25 1007.31 1007.57 1007.89 1007.39 1007.95 1008.60 1009.10 1009.50 1009.58 1010.06 1008.77 1008.35 1008.16 1008.06 1007.89 1008.06 1008.25 1008.20
1013.06 1013.03 1013.03 1013.07 1012.69 1011.74 1010.42 1009.97 1009.87 1009.81 1008.88 1006.73 1005.54 1004.37 1004.76 1005.22 1005.10 1005.07 1005.21 1005.76 1006.75 1007.64 1008.44 1007.72 1007.30 1007.14 1006.98 1006.43 1006.70 1006.96 1006.96 1008.01 1008.80 1009.79 1010.12 1010.29 1010.41 1008.65 1008.34 1007.70 1007.17 1006.82 1006.97 1007.13 1007.20
1012.80 1012.91 1013.04 1013.07 1012.82 1010.57 1010.07 1009.95 1009.91 1009.72 1007.82 1006.09 1005.07 1004.88 1005.28 1005.34 1005.12 1005.10 1005.23 1005.68 1006.44 1007.17 1007.64 1007.36 1006.68 1006.48 1005.93 1005.58 1005.93 1006.60 1007.63 1008.78 1009.81 1010.72 1011.39 1010.71 1010.47 1008.87 1007.96 1006.87 1006.51 1006.05 1006.13 1006.13 1006.16
1012.53 1012.64 1012.89 1012.32 1011.22 1010.30 1010.19 1010.15 1010.21 1009.30 1007.29 1006.30 1005.62 1005.44 1005.79 1006.18 1005.87 1005.66 1005.79 1006.32 1007.03 1007.58 1007.88 1007.02 1006.42 1005.76 1005.41 1005.45 1005.84 1006.64 1008.22 1009.85 1011.23 1011.92 1011.52 1010.85 1010.50 1008.18 1006.82 1006.15 1005.86 1005.55 1005.51 1005.47 1005.82
1012.37 1012.58 1012.32 1011.39 1010.60 1010.43 1010.07 1010.07 1009.64 1008.27 1007.23 1006.12 1005.96 1006.13 1006.51 1006.66 1006.66 1006.41 1006.47 1006.92 1007.24 1007.68 1008.17 1007.89 1006.57 1005.56 1005.03 1005.02 1005.44 1006.51 1007.88 1009.50 1010.91 1012.10 1011.58 1010.87 1009.88 1007.11 1005.89 1005.31 1005.32 1005.20 1005.09 1005.24 1005.49
1012.24 1012.46 1012.11 1009.59 1009.99 1010.85 1010.07 1009.92 1008.83 1007.74 1006.81 1006.25 1006.26 1006.56 1007.00 1007.20 1007.21 1007.05 1006.99 1007.08 1006.97 1007.20 1007.86 1007.97 1006.87 1005.56 1005.04 1004.83 1005.31 1006.54 1007.87 1008.81 1010.58 1012.01 1011.99 1010.76 1009.07 1006.81 1005.68 1005.37 1005.43 1005.35 1005.22 1005.35 1005.55
1012.15 1012.04 1010.48 1008.83 1009.34 1009.67 1009.82 1009.84 1008.48 1007.28 1006.40 1006.05 1006.20 1006.34 1007.15 1007.45 1007.59 1007.46 1007.13 1006.38 1006.61 1006.74 1006.66 1008.05 1007.72 1006.40 1005.41 1005.17 1005.64 1006.13 1007.55 1009.05 1010.56 1011.93 1012.35 1011.23 1010.01 1008.20 1006.60 1005.97 1005.88 1005.78 1005.55 1005.64 1005.88
1012.14 1011.39 1009.63 1009.14 1009.33 1009.60 1010.25 1009.59 1008.11 1006.56 1006.28 1005.89 1005.84 1006.45 1006.99 1007.40 1007.68 1007.85 1007.23 1006.28 1006.22 1006.90 1007.09 1007.87 1008.44 1007.41 1006.53 1006.45 1006.68 1006.95 1007.88 1009.52 1010.89 1011.74 1012.24 1012.03 1009.96 1007.44 1006.93 1006.61 1006.34 1006.04 1005.87 1005.92 1006.06
1011.59 1011.20 1009.69 1009.56 1009.95 1010.68 1010.30 1008.90 1007.54 1006.42 1005.84 1005.72 1005.59 1005.83 1006.47 1007.04 1007.60 1007.70 1007.10 1006.28 1005.74 1006.26 1007.32 1007.86 1008.82 1008.70 1008.14 1007.26 1007.40 1007.48 1008.09 1009.29 1011.06 1012.24 1012.48 1011.77 1009.23 1007.47 1007.11 1006.71 1006.22 1005.85 1005.97 1005.99 1006.38
1011.49 1011.09 1009.85 1009.56 1010.22 1010.66 1009.51 1008.44 1007.31 1006.49 1005.75 1005.37 1005.21 1005.22 1005.74 1006.52 1007.14 1006.92 1006.49 1005.52 1005.60 1006.19 1006.57 1007.53 1008.87 1009.44 1008.66 1008.18 1007.69 1007.95 1008.32 1009.37 1010.62 1011.43 1011.92 1011.53 1009.11 1007.14 1006.72 1006.34 1005.95 1006.03 1006.13 1006.24 1006.61
1011.21 1011.28 1010.88 1010.39 1010.25 1009.85 1009.37 1008.52 1007.50 1006.34 1005.73 1005.10 1004.75 1004.60 1005.39 1006.00 1006.44 1006.40 1006.03 1005.59 1005.67 1006.07 1006.47 1006.92 1009.16 1009.52 1009.48 1008.96 1008.57 1008.50 1008.35 1008.85 1009.99 1011.07 1011.19 1010.48 1008.76 1007.62 1006.69 1006.35 1006.00 1005.94 1005.96 1006.31 1006.64
1011.18 1011.41 1010.56 1010.73 1010.49 1009.83 1009.22 1008.58 1007.93 1006.91 1005.65 1004.92 1004.56 1004.55 1005.00 1005.84 1006.28 1006.21 1005.86 1005.67 1005.95 1006.36 1006.95 1007.78 1009.15 1009.50 1009.10 1008.68 1008.56 1008.26 1008.10 1008.52 1009.20 1009.26 1009.78 1008.87 1008.73 1007.21 1006.22 1005.84 1005.50 1006.00 1006.38 1006.70 1006.99
1011.51 1011.22 1010.79 1010.63 1010.28 1009.81 1009.34 1008.43 1007.71 1007.06 1006.42 1005.52 1005.18 1004.74 1004.75 1005.24 1005.38 1005.70 1005.72 1005.88 1006.03 1006.38 1007.27 1008.44 1009.36 1009.86 1009.42 1008.41 1008.61 1008.21 1007.71 1007.90 1008.06 1008.18 1008.22 1007.84 1007.69 1005.83 1005.37 1005.44 1005.37 1005.81 1006.31 1006.51 1006.40
1011.73 1011.04 1010.61 1011.08 1010.51 1009.88 1009.33 1008.40 1007.73 1007.45 1006.29 1005.74 1005.30 1005.20 1005.26 1005.57 1005.31 1005.36 1005.70 1005.74 1005.92 1006.58 1007.70 1008.72 1009.63 1010.67 1010.06 1009.16 1008.69 1007.98 1006.96 1006.57 1006.46 1006.37 1006.62 1006.80 1005.73 1005.39 1005.32 1005.39 1005.27 1005.34 1005.39 1005.67 1005.95
Wind_Speed
12 12 13 12 11 11 11 11 11 11 11 12 12 11 11 12 14 3 5 9 5 6 5 9 4 6 3 3 2 1 4 3 4 4 6 5 4 3 4 7 2 3 6 8 17
12 12 13 12 12 11 11 11 11 11 11 12 12 11 10 11 3 6 9 8 7 9 2 9 10 5 3 2 2 4 3 2 1 6 4 2 3 8 5 4 2 5 11 19 18
12 12 13 13 13 12 11 11 11 11 11 12 12 11 10 7 3 5 6 10 9 9 5 2 7 3 3 1 2 2 4 6 5 6 4 1 2 3 9 4 6 10 16 17 17
12 12 13 13 13 13 12 11 11 11 11 12 12 11 13 3 1 5 11 12 9 4 4 7 4 3 2 3 2 1 5 4 7 5 2 1 6 3 4 4 8 16 20 16 15
13 13 13 13 13 13 12 12 11 11 11 11 11 11 4 3 7 3 7 7 6 3 2 2 3 3 1 3 3 1 4 6 8 5 4 1 0 4 2 5 16 15 16 15 13
13 13 13 13 14 13 13 12 11 11 11 10 10 11 2 3 1 7 7 5 2 4 3 1 2 5 5 2 2 2 6 4 5 5 5 3 3 2 2 7 15 16 15 14 15
13 13 13 14 14 14 13 12 12 11 10 9 7 3 1 8 2 5 5 2 2 3 3 2 4 3 1 2 3 4 3 2 2 3 5 2 2 2 5 7 12 13 14 14 15
13 13 13 14 14 14 14 13 12 11 10 8 3 1 6 1 6 6 1 2 2 4 4 6 2 5 2 4 2 3 3 2 3 2 5 3 5 3 9 10 9 9 11 14 16
13 13 13 13 14 15 14 15 14 8 5 2 1 1 7 5 4 4 2 3 3 3 5 5 1 2 2 2 3 4 2 1 3 5 2 2 5 3 8 8 8 9 11 12 12
13 12 12 13 13 14 17 9 2 1 2 3 4 3 3 4 5 7 2 4 2 6 3 3 4 3 2 3 1 3 1 2 4 3 5 5 13 2 4 7 9 9 8 11 12
12 12 12 12 11 11 9 1 3 1 1 8 4 3 5 4 7 3 5 3 2 2 1 2 3 6 7 6 0 2 1 2 4 4 5 7 7 6 7 4 6 9 9 7 12
12 12 11 10 10 9 2 2 2 2 7 8 4 6 5 0 1 4 13 6 5 4 2 4 5 9 3 6 3 2 2 4 4 2 3 5 8 7 7 6 8 11 8 8 7
11 11 9 9 9 3 2 5 3 7 1 6 5 5 5 8 6 8 13 5 4 3 4 4 6 2 3 2 3 3 4 3 4 3 1 2 8 2 4 4 6 8 6 6 10
10 9 7 8 4 2 4 1 5 4 5 5 3 6 5 5 3 6 9 7 3 9 6 6 5 4 4 5 6 3 7 6 2 4 2 2 5 5 4 5 5 8 8 9 10
9 7 4 4 2 3 1 7 2 3 2 2 4 1 1 6 2 3 4 3 6 6 5 7 3 4 4 6 6 7 2 3 4 4 2 2 3 8 3 5 8 7 9 9 12
7 5 4 1 1 6 5 4 3 7 3 1 4 4 5 5 1 2 3 6 2 2 3 6 2 5 6 3 6 4 6 8 6 4 3 4 4 7 5 9 4 5 6 8 8
6 6 6 2 3 4 4 3 6 3 4 2 3 3 3 1 1 1 4 3 3 3 5 6 2 3 3 3 2 5 6 4 3 4 6 4 4 10 5 7 6 8 8 8 4
5 7 5 6 2 5 3 5 2 3 5 2 3 3 5 1 1 3 2 2 1 4 2 1 7 2 2 5 6 2 7 6 3 2 5 1 5 8 6 8 5 7 4 5 6
6 1 4 6 9 1 4 2 6 5 2 1 2 3 1 0 1 0 3 6 8 9 6 2 5 5 3 2 4 3 2 4 7 4 3 3 8 11 4 3 3 6 5 8 6
2 1 4 3 9 4 6 5 4 4 2 1 6 4 5 3 2 2 2 3 3 6 4 5 3 2 7 2 4 2 4 3 4 1 3 6 6 8 5 7 5 6 10 7 2
1 3 3 2 1 6 4 7 6 7 4 5 5 4 3 6 6 4 4 6 3 4 3 5 3 7 3 4 2 5 3 7 6 4 6 1 8 8 7 7 10 9 9 8 7
2 4 3 2 5 1 3 6 4 5 5 5 3 3 8 7 6 4 7 6 7 9 8 5 6 1 7 2 1 2 1 5 6 4 1 4 9 2 7 10 9 10 9 7 6
3 2 4 3 4 2 5 5 3 6 4 2 5 4 3 7 4 5 4 6 7 5 8 8 2 4 11 9 5 4 2 5 5 3 4 5 8 3 6 8 7 9 8 7 7
3 3 4 4 1 5 1 3 5 6 5 4 3 5 3 3 1 1 3 4 1 2 7 9 4 7 8 8 3 4 3 3 4 3 3 7 7 12 11 10 8 8 7 7 6
3 2 3 3 2 2 2 2 5 5 3 4 5 1 4 4 1 2 1 2 4 5 4 5 4 5 6 6 4 5 7 5 7 7 6 9 7 12 11 10 9 4 4 4 6
3 3 3 2 1 4 2 3 2 4 4 3 1 6 3 7 9 8 4 2 3 2 3 2 2 3 5 4 5 6 8 6 7 5 8 6 9 10 8 5 4 7 6 8 8
2 1 4 3 1 4 4 3 2 3 4 6 4 2 5 4 2 1 2 3 2 5 3 3 7 4 8 3 5 8 9 7 6 6 7 6 12 3 5 7 8 10 10 8 8
Wind_Direction
351 349 346 342 333 330 329 324 325 327 321 322 319 321 328 330 306 188 241 218 184 163 154 133 183 133 50 78 101 148 58 15 308 340 300 170 112 156 100 129 202 138 147 142 132
348 347 342 338 332 328 326 325 325 322 321 320 317 324 333 320 277 243 242 197 208 155 163 143 142 156 88 40 16 86 90 264 119 304 300 112 126 152 106 161 38 63 95 122 135
343 344 339 334 330 326 324 325 321 319 321 317 321 328 317 315 287 246 172 179 188 178 136 110 136 137 92 139 187 201 151 280 288 284 275 350 83 181 124 211 201 159 143 142 147
339 341 335 332 327 324 323 322 317 319 319 316 325 324 312 243 251 328 167 177 177 176 120 144 131 110 110 138 167 125 259 225 274 286 295 301 159 145 170 217 160 153 151 149 159
334 336 332 330 324 322 320 317 316 319 316 317 325 328 308 351 257 221 195 157 122 123 104 49 106 82 125 109 118 79 284 302 307 252 33 10 162 191 228 94 125 135 152 161 173
332 333 331 326 323 321 319 316 314 315 313 315 328 311 325 309 73 182 180 140 158 120 113 3 135 163 111 90 102 209 254 306 5 44 75 91 50 68 33 124 129 143 164 174 182
328 329 328 323 321 318 315 312 309 309 304 311 310 318 326 241 146 201 177 155 72 109 97 21 135 56 71 58 308 264 339 14 324 278 168 134 207 132 152 140 149 162 171 184 195
325 325 323 320 319 315 312 307 302 299 296 291 304 309 251 118 147 171 300 30 251 48 55 125 212 100 47 338 10 354 14 96 289 338 13 55 260 181 159 153 169 188 190 189 201
322 322 320 319 317 312 308 304 294 278 254 298 262 216 274 127 157 196 245 193 74 28 55 98 17 61 31 69 23 4 216 185 312 216 38 151 283 290 161 165 180 196 206 212 209
319 317 317 317 316 314 311 280 88 274 255 221 260 314 255 222 162 170 173 144 136 142 114 48 47 66 33 86 156 282 244 213 243 244 213 254 264 353 162 171 200 209 211 215 218
315 313 312 312 310 319 341 32 21 329 206 196 193 244 287 309 125 229 163 114 114 68 9 34 40 246 211 210 41 116 203 241 259 217 172 234 268 240 215 192 223 229 220 224 233
310 307 307 307 307 323 303 171 147 240 308 224 234 280 272 150 235 172 135 172 178 213 102 6 261 266 259 198 192 183 265 258 274 256 152 305 273 258 189 227 211 225 220 220 239
303 301 303 305 316 302 204 228 23 22 86 294 185 206 214 143 215 195 157 166 173 172 193 195 260 52 185 230 229 226 209 218 216 61 113 30 305 160 232 220 211 226 214 208 226
297 294 298 301 308 215 244 17 333 178 57 275 258 271 157 163 239 180 177 146 194 222 165 232 267 237 278 271 158 303 206 223 169 113 216 37 277 304 311 269 232 238 219 219 236
292 283 276 295 300 178 126 342 20 67 81 178 208 58 104 149 193 187 173 73 180 186 134 264 202 236 251 231 149 234 35 170 101 91 35 331 62 271 324 268 260 255 244 224 221
285 250 213 225 278 253 325 319 65 42 252 253 175 162 116 12 317 102 127 65 132 151 248 244 309 195 219 235 175 106 57 39 50 71 360 282 150 278 200 214 256 261 243 246 263
271 218 194 297 217 325 306 77 45 131 349 221 181 126 89 306 341 66 179 132 173 14 355 319 227 263 205 310 108 89 68 345 2 11 225 292 119 250 266 246 227 222 252 268 241
236 186 240 239 296 343 81 58 153 227 259 322 97 71 144 155 29 349 84 188 44 91 56 32 342 213 206 206 200 109 148 157 225 219 270 197 224 257 225 261 221 254 221 278 289
148 184 272 253 200 173 83 88 221 201 233 304 81 110 246 119 155 2 201 203 205 172 174 152 275 308 220 277 137 175 219 167 103 10 35 274 294 306 304 297 148 211 224 248 269
117 121 258 139 163 96 77 239 253 220 302 139 202 151 181 209 183 137 230 212 214 193 154 188 325 297 286 44 37 134 149 35 14 151 288 300 293 245 296 254 192 226 234 243 228
53 83 293 104 160 52 156 232 265 250 218 171 214 150 197 173 180 176 232 285 159 142 101 129 129 286 1 21 291 6 18 50 114 120 166 242 271 217 244 256 242 236 237 220 201
99 80 323 30 61 22 170 205 248 267 231 265 193 147 177 166 171 216 221 231 158 156 163 182 138 283 247 286 259 261 116 117 109 275 104 144 270 242 269 263 239 225 225 204 192
97 117 340 57 131 262 273 278 271 344 305 271 225 199 154 171 175 205 214 277 171 141 159 184 16 22 347 355 9 49 1 94 101 80 205 139 265 304 318 302 254 231 212 195 195
99 87 343 45 6 140 29 324 333 284 253 256 267 122 140 118 265 217 264 18 88 76 62 87 123 155 186 208 177 288 254 148 125 118 210 230 278 301 293 270 265 237 192 178 199
40 215 190 198 294 180 78 296 311 315 291 324 351 125 161 102 67 282 327 360 59 179 73 102 176 174 242 223 197 238 248 207 194 210 181 255 211 263 261 249 240 228 173 169 213
118 124 14 105 41 120 155 238 251 291 222 312 107 299 154 155 178 197 169 173 200 32 78 22 200 171 283 278 197 271 275 251 234 229 246 246 269 236 276 240 159 197 184 212 226
308 312 104 307 80 109 201 254 270 334 261 252 275 130 78 346 216 175 174 133 212 151 148 123 138 127 248 1 5 306 242 221 232 210 180 214 240 271 270 225 212 213 207 215 230